Location: Unspecified
(0.0000°N, 0.0000°E)
Time: 10:36:33
(UTC+00:00)

YUBILEINY - Pass Details

Date: 08 December 2017
Orbit: 1479 x 1508 km, 82.5° (Epoch: 22 June)

Event Time Altitude Azimuth Distance (km) Brightness Sun altitude
Rises 04:53:32 0° 216° (SW) 4,613 ? -13.4°
Reaches altitude 10° 04:57:35 10° 233° (SW) 3,636 ? -12.5°
Maximum altitude 05:03:04 18° 273° (W) 3,027 ? -11.2°
Drops below altitude 10° 05:08:37 10° 313° (NW) 3,643 ? -10.0°
Sets 05:12:44 0° 331° (NNW) 4,626 ? -9.0°
